DW4691 Weather Reports


Display with metric or nautical units.
time (UTC)temp
F
wind
direction
speed
MPH
gust
MPH
rain 1hr
in
rain 24hr
in
rain mn
in
humidity
%
barometer
mb
20260509221542 89 0 0.0 0.0 0.00 0.00 0.00 69 1007.5
20260509220050 89 0 0.0 0.0 0.00 0.00 0.00 64 1007.6
20260509214547 89 0 0.0 0.0 0.00 0.00 0.00 62 1007.5
20260509213055 89 0 0.0 0.0 0.00 0.00 0.00 63 1007.5
20260509211543 90 0 0.0 0.0 0.00 0.00 0.00 66 1007.7
20260509210053 90 0 0.0 0.0 0.00 0.00 0.00 63 1007.8
20260509204543 90 0 0.0 0.0 0.00 0.00 0.00 68 1008.0
20260509203043 90 0 0.0 0.0 0.00 0.00 0.00 67 1008.1
20260509201546 89 0 0.0 0.0 0.00 0.00 0.00 65 1008.3
20260509200046 90 0 0.0 0.0 0.00 0.00 0.00 64 1008.4
20260509194543 89 0 0.0 0.0 0.00 0.00 0.00 68 1008.6
20260509193045 88 0 0.0 0.0 0.00 0.00 0.00 66 1008.7
20260509191543 88 0 0.0 0.0 0.00 0.00 0.00 69 1008.9
20260509190045 87 0 0.0 0.0 0.00 0.00 0.00 69 1009.0
20260509184552 86 0 0.0 0.0 0.00 0.00 0.00 71 1009.3
20260509183051 85 0 0.0 0.0 0.00 0.00 0.00 76 1009.6
20260509181558 85 0 0.0 0.0 0.00 0.00 0.00 74 1009.8
20260509180050 86 0 0.0 0.0 0.00 0.00 0.00 72 1010.1
20260509174545 85 0 0.0 0.0 0.00 0.00 0.00 74 1010.1
20260509173046 85 0 0.0 0.0 0.00 0.00 0.00 75 1010.3
20260509171542 84 0 0.0 0.0 0.00 0.00 0.00 77 1010.1
20260509170052 84 0 0.0 5.0 0.00 0.00 0.00 78 1010.2
20260509164544 83 0 0.0 2.0 0.00 0.00 0.00 81 1009.8
20260509163049 81 0 0.0 0.0 0.00 0.00 0.00 83 1010.0
20260509161545 79 0 0.0 1.0 0.00 0.00 0.00 85 1010.3
20260509160046 79 0 0.0 0.0 0.00 0.00 0.00 87 1010.4
20260509154550 79 0 0.0 0.0 0.00 0.00 0.00 87 1010.8
20260509153057 78 0 0.0 0.0 0.00 0.00 0.00 87 1010.9
20260509151550 78 0 0.0 0.0 0.00 0.00 0.00 88 1010.8
20260509150058 77 0 0.0 0.0 0.00 0.00 0.00 90 1010.6
20260509144558 77 0 0.0 0.0 0.00 0.00 0.00 90 1010.5
20260509143051 76 0 0.0 0.0 0.00 0.00 0.00 91 1010.2
20260509141553 76 0 0.0 0.0 0.00 0.00 0.00 91 1010.0
20260509140048 76 0 0.0 0.0 0.00 0.00 0.00 91 1010.0
20260509134549 75 0 0.0 0.0 0.00 0.00 0.00 92 1010.2
20260509133045 75 0 0.0 0.0 0.00 0.00 0.00 92 1010.7
20260509131546 75 0 0.0 0.0 0.00 0.00 0.00 92 1010.5
20260509130044 74 0 0.0 0.0 0.00 0.00 0.00 93 1010.6
20260509124544 74 0 0.0 0.0 0.00 0.00 0.00 93 1010.6
20260509123043 74 0 0.0 0.0 0.00 0.00 0.00 92 1010.3
20260509121546 73 0 0.0 0.0 0.00 0.00 0.00 92 1010.3
20260509120058 74 0 0.0 0.0 0.00 0.00 0.00 92 1009.9
20260509114544 74 0 0.0 0.0 0.00 0.00 0.00 92 1009.9
20260509113043 74 0 0.0 0.0 0.00 0.00 0.00 92 1010.1
20260509111548 74 0 0.0 0.0 0.00 0.00 0.00 92 1010.0
20260509110048 74 0 0.0 0.0 0.00 0.00 0.00 92 1010.4
20260509104546 74 0 0.0 0.0 0.00 0.00 0.00 92 1010.1
20260509103044 74 0 0.0 0.0 0.00 0.00 0.00 92 1010.1
20260509101552 74 0 0.0 0.0 0.00 0.00 0.00 92 1009.6
20260509100045 74 0 0.0 0.0 0.00 0.00 0.00 92 1009.3
20260509094543 74 0 0.0 0.0 0.00 0.00 0.00 92 1009.4
20260509093048 74 0 0.0 0.0 0.00 0.00 0.00 92 1009.5
20260509091602 74 0 0.0 0.0 0.00 0.00 0.00 92 1009.6
20260509090046 74 0 0.0 0.0 0.00 0.00 0.00 92 1009.8
20260509084547 74 0 0.0 0.0 0.00 0.00 0.00 92 1010.1
20260509083052 74 0 0.0 0.0 0.00 0.00 0.00 92 1010.0
20260509081542 74 0 0.0 0.0 0.00 0.00 0.00 92 1010.0
20260509080051 74 0 0.0 0.0 0.00 0.00 0.00 92 1009.8
20260509074552 74 0 0.0 0.0 0.00 0.00 0.00 92 1009.6
20260509073113 74 0 0.0 0.0 0.00 0.00 0.00 92 1009.7
20260509071543 74 0 0.0 0.0 0.00 0.00 0.00 92 1009.8
20260509070044 74 0 0.0 0.0 0.00 0.00 0.00 92 1009.7
20260509064546 73 0 0.0 0.0 0.00 0.00 0.00 92 1009.8
20260509063045 73 0 0.0 0.0 0.00 0.00 0.00 92 1009.9
20260509061550 73 0 0.0 0.0 0.00 0.00 0.00 91 1010.1
20260509060057 73 0 0.0 0.0 0.00 0.00 0.00 92 1010.3
20260509054547 73 0 0.0 0.0 0.00 0.00 0.00 92 1010.4
20260509053040 73 0 0.0 0.0 0.00 0.00 0.00 92 1010.3
20260509051545 73 0 0.0 0.0 0.00 0.00 0.00 92 1010.3
20260509050045 73 0 0.0 0.0 0.00 0.00 0.00 92 1010.3
20260509044542 73 0 0.0 0.0 0.00 0.00 0.00 92 1010.5
20260509043048 73 0 0.0 0.0 0.00 0.00 0.00 92 1010.4
20260509041546 73 0 0.0 0.0 0.00 0.00 0.00 91 1010.5
20260509040104 73 0 0.0 0.0 0.00 0.00 0.00 91 1010.4
20260509034548 73 0 0.0 0.0 0.00 0.00 0.00 91 1010.0
20260509033052 73 0 0.0 0.0 0.00 0.00 0.00 91 1009.9
20260509031556 73 0 0.0 0.0 0.00 0.00 0.00 91 1010.0
20260509030049 73 0 0.0 3.0 0.00 0.00 0.00 91 1009.9
20260509024549 73 0 0.0 3.0 0.00 0.00 0.00 91 1009.5
20260509023050 73 0 0.0 0.0 0.00 0.00 0.00 90 1009.5
20260509021551 74 0 0.0 0.0 0.00 0.00 0.00 90 1009.4
20260509020049 74 0 0.0 0.0 0.00 0.00 0.00 90 1009.1
20260509014546 74 0 0.0 0.0 0.00 0.00 0.00 90 1009.1
20260509013053 74 0 0.0 0.0 0.00 0.00 0.00 89 1009.3
20260509011558 74 0 0.0 1.0 0.00 0.00 0.00 89 1009.2
20260509010047 75 0 0.0 2.0 0.00 0.00 0.00 89 1008.9
20260509004553 75 0 0.0 1.0 0.00 0.00 0.00 88 1008.7
20260509003043 75 40 0.0 2.0 0.00 0.00 0.00 87 1008.6
20260509001551 76 0 0.0 1.0 0.00 0.00 0.00 86 1008.9
20260509000046 77 0 0.0 2.0 0.00 0.00 0.00 85 1009.1
20260508234545 77 0 0.0 0.0 0.00 0.00 0.00 84 1009.0
20260508233044 78 0 0.0 2.0 0.00 0.00 0.00 83 1009.0
20260508231542 78 0 0.0 0.0 0.00 0.00 0.00 83 1008.9
20260508230043 78 0 0.0 1.0 0.00 0.00 0.00 83 1008.9
20260508224541 78 0 0.0 1.0 0.00 0.00 0.00 83 1008.9
20260508223051 79 0 0.0 1.0 0.00 0.00 0.00 82 1008.9